OE5RBO Weather Reports


time (UTC)temp
C
wind
direction
speed
KPH
gust
KPH
rain 1hr
cm
rain 24hr
cm
rain mn
cm
humidity
%
barometer
mb
20260506121938 23 288 8.0 25.7 0.00 0.00 0.00 60 1003.8
20260506120937 23 23 6.4 11.3 0.00 0.00 0.00 53 1003.9
20260506115937 23 21 4.8 12.9 0.00 0.00 0.00 56 1004.1
20260506113937 23 359 3.2 12.9 0.00 0.00 0.00 53 1004.4
20260506112936 23 23 4.8 16.1 0.00 0.00 0.00 54 1004.6
20260506111936 22 20 3.2 8.0 0.00 0.00 0.00 53 1004.8
20260506110936 22 0 3.2 8.0 0.00 0.00 0.00 55 1004.9
20260506104935 21 4 4.8 11.3 0.00 0.00 0.00 57 1005.4
20260506103934 21 187 4.8 16.1 0.00 0.00 0.00 56 1005.6
20260506102934 21 25 8.0 19.3 0.00 0.00 0.00 56 1005.6
20260506101934 21 32 6.4 14.5 0.00 0.00 0.00 59 1005.6
20260506100933 21 31 8.0 12.9 0.00 0.00 0.00 63 1005.7
20260506095933 20 20 4.8 14.5 0.00 0.00 0.00 65 1005.8
20260506094932 20 214 8.0 16.1 0.00 0.00 0.00 64 1006.0
20260506093932 20 288 8.0 14.5 0.00 0.00 0.00 69 1006.0
20260506092932 18 15 8.0 16.1 0.00 0.00 0.00 72 1006.0
20260506091931 19 288 8.0 14.5 0.00 0.00 0.00 69 1006.1
20260506090931 20 288 6.4 14.5 0.00 0.00 0.00 67 1006.0
20260506085931 20 11 8.0 16.1 0.00 0.00 0.00 70 1006.0
20260506083930 19 333 9.7 16.1 0.00 0.00 0.00 66 1006.2
20260506081929 20 27 6.4 11.3 0.00 0.00 0.00 63 1006.2
20260506080929 20 353 4.8 12.9 0.00 0.00 0.00 62 1006.3
20260506072928 23 203 0.0 4.8 0.00 0.00 0.00 58 1006.6
20260506071927 22 0 0.0 0.0 0.00 0.00 0.00 65 1006.7
20260506070927 21 188 0.0 1.6 0.00 0.00 0.00 71 1006.9
20260506061925 16 0 0.0 0.0 0.00 0.00 0.00 86 1007.3
20260506050922 12 0 0.0 0.0 0.00 0.00 0.00 96 1007.6
20260506044921 11 13 3.2 4.8 0.00 0.00 0.00 97 1007.6
20260506043921 11 195 1.6 8.0 0.00 0.00 0.00 97 1007.6
20260506042921 11 0 0.0 0.0 0.00 0.00 0.00 95 1007.4
20260506041920 12 0 0.0 0.0 0.00 0.00 0.00 92 1007.4
20260506040920 12 35 0.0 3.2 0.00 0.00 0.00 91 1007.6
20260506035920 13 53 1.6 3.2 0.00 0.00 0.00 88 1007.8
20260506034920 13 0 0.0 0.0 0.00 0.00 0.00 86 1008.0
20260506032919 13 132 4.8 8.0 0.00 0.00 0.00 84 1008.0
20260506031918 13 122 3.2 8.0 0.00 0.00 0.00 88 1008.3
20260506030918 13 110 3.2 9.7 0.00 0.00 0.00 92 1008.5
20260506024917 13 162 3.2 8.0 0.00 0.00 0.00 90 1008.0
20260506023917 13 149 3.2 8.0 0.00 0.00 0.00 88 1008.0
20260506022917 13 138 3.2 9.7 0.00 0.00 0.00 89 1008.0
20260506020916 13 148 4.8 8.0 0.00 0.00 0.00 91 1008.3
20260506015915 13 143 3.2 6.4 0.00 0.00 0.00 92 1008.5
20260506014915 13 135 1.6 4.8 0.00 0.00 0.00 92 1008.4
20260506013915 13 205 3.2 8.0 0.00 0.00 0.00 93 1008.3
20260506011914 13 204 1.6 4.8 0.00 0.00 0.00 93 1008.4
20260506010914 13 159 3.2 8.0 0.00 0.00 0.00 93 1008.4
20260506005913 13 136 1.6 8.0 0.00 0.00 0.00 94 1008.5
20260506003913 13 200 1.6 6.4 0.00 0.00 0.00 94 1008.7
20260506002912 13 101 1.6 4.8 0.00 0.00 0.00 93 1008.5
20260506001912 13 0 0.0 0.0 0.00 0.00 0.00 93 1008.4
20260506000911 13 176 1.6 8.0 0.00 0.00 0.00 92 1008.8
20260505235911 13 208 1.6 3.2 0.00 0.00 0.00 91 1008.9
20260505234911 13 194 4.8 9.7 0.00 0.00 0.00 91 1009.0
20260505233910 14 190 1.6 4.8 0.00 0.00 0.00 91 1009.1
20260505232910 14 0 0.0 0.0 0.00 0.00 0.00 91 1009.1
20260505231910 14 195 0.0 3.2 0.00 0.00 0.00 90 1009.1
20260505230909 15 221 0.0 4.8 0.00 0.00 0.00 89 1009.1
20260505225909 15 214 3.2 9.7 0.00 0.00 0.00 89 1009.1
20260505224908 15 243 1.6 6.4 0.00 0.00 0.00 88 1009.1
20260505223908 15 201 6.4 14.5 0.00 0.00 0.00 88 1009.1
20260505222908 15 204 6.4 12.9 0.00 0.00 0.00 88 1009.1
20260505221907 15 207 3.2 6.4 0.00 0.00 0.00 89 1009.0
20260505220907 15 183 0.0 1.6 0.00 0.00 0.00 93 1008.7
20260505215906 15 0 0.0 0.0 0.00 0.00 0.00 93 1008.7
20260505214906 15 0 0.0 0.0 0.00 0.00 0.00 93 1008.5
20260505213906 15 0 0.0 0.0 0.00 0.00 0.00 90 1008.1
20260505212906 15 75 0.0 1.6 0.00 0.00 0.00 90 1007.9
20260505211905 15 146 0.0 3.2 0.00 0.00 0.00 91 1007.6
20260505210905 15 127 0.0 6.4 0.00 0.00 0.00 92 1007.8
20260505205905 15 214 0.0 1.6 0.00 0.00 0.00 94 1007.7
20260505204904 15 148 1.6 4.8 0.00 0.00 0.00 94 1007.5
20260505203904 15 118 0.0 3.2 0.00 0.00 0.00 95 1007.3
20260505201903 15 198 1.6 6.4 0.00 0.00 0.00 95 1007.1
20260505195902 15 174 1.6 4.8 0.00 0.00 0.00 95 1006.5
20260505194902 14 155 1.6 9.7 0.00 0.00 0.00 96 1006.2
20260505193902 14 125 3.2 8.0 0.00 0.00 0.00 97 1006.1
20260505192901 15 155 1.6 8.0 0.00 0.00 0.00 96 1005.9
20260505191901 15 204 1.6 4.8 0.00 0.00 0.00 95 1005.8
20260505190900 15 0 0.0 0.0 0.00 0.00 0.00 89 1005.7
20260505185900 16 0 0.0 0.0 0.00 0.00 0.00 88 1005.5
20260505184900 16 0 0.0 0.0 0.00 0.00 0.00 86 1005.4
20260505183859 17 0 0.0 0.0 0.00 0.00 0.00 83 1005.3
20260505182859 17 53 0.0 4.8 0.00 0.00 0.00 82 1005.2
20260505181859 17 21 6.4 8.0 0.00 0.00 0.00 83 1005.3
20260505180858 16 31 6.4 11.3 0.00 0.00 0.00 83 1005.3
20260505175858 16 42 6.4 9.7 0.00 0.00 0.00 86 1005.3
20260505174857 16 25 4.8 8.0 0.00 0.00 0.00 84 1005.4
20260505173857 17 338 3.2 8.0 0.00 0.00 0.00 82 1005.5
20260505172857 17 314 1.6 4.8 0.00 0.00 0.00 80 1005.7
20260505171856 17 51 6.4 12.9 0.00 0.00 0.00 84 1005.8
20260505165856 17 173 6.4 14.5 0.00 0.00 0.00 76 1005.7
20260505164855 17 193 11.3 20.9 0.00 0.00 0.00 79 1005.6
20260505163855 17 207 11.3 24.1 0.00 0.00 0.00 79 1005.3
20260505162855 19 200 24.1 45.1 0.00 0.00 0.00 67 1005.1
20260505161854 23 191 8.0 20.9 0.00 0.00 0.00 45 1004.2
20260505160854 23 205 1.6 8.0 0.00 0.00 0.00 44 1004.0
20260505152852 24 7 3.2 9.7 0.00 0.00 0.00 48 1003.9
20260505151852 25 288 3.2 9.7 0.00 0.00 0.00 45 1003.9
20260505150852 25 288 3.2 9.7 0.00 0.00 0.00 48 1003.9
20260505124847 25 215 8.0 16.1 0.00 0.00 0.00 41 1004.8
20260505123846 25 160 8.0 19.3 0.00 0.00 0.00 40 1004.9
20260505122846 25 225 6.4 14.5 0.00 0.00 0.00 41 1005.2